sat.trackr.live / text

‹ back to catalog

KAZSAT-3

NORAD 39728 · 2014-023B

PAYLOAD ACTIVE UNKNOWN

§ Identity

Operator
Country
KAZ
Launch date
2014-04-28
Launch site
TYMSC
Launch vehicle
Mass (kg)
RCS (m²)
0.00

Purposes: comms

External: N2YO · Heavens-Above · Gunter

§ Orbital elements

Epoch: 2026-09-19T10:24:14.688576Z

Period
1,436.08 min
Inclination
0.0129°
Eccentricity
0.0000294
Mean motion
1.00272785 rev/d
Perigee alt
35,785.1 km
Apogee alt
35,787.6 km
Semi-major
42,164.5 km
B*
0.0000e+0
RAAN
174.6381°
Arg perigee
91.0561°
Mean anomaly
307.2215°
Rev number
4,340

§ Raw data

KAZSAT-31 39728U 14023B   26262.43350334  .00000000  00000+0  00000+0 0  99902 39728   0.0129 174.6381 0000294  91.0561 307.2215  1.00272785 43403

JSON: /api/v1/satellites/39728 · /tle

For live sub-satellite position, see the globe view (requires WebGL).

§ Visibility from observer

Set your observer location to see the next 7 days of passes ≥ 10°. The values pass through the URL so the page stays shareable.

No JS? Fill the form by hand. The geolocation button needs JavaScript.